This is the latest recevied weather packets stored in our database for station/object DB0LC-2. If no packets are shown the sender has not sent any weather packets the latest 10 day(s).
| Time | Temp. | Humidity | Pressure | Rain* | Wind** | Luminosity | Snow |
|---|---|---|---|---|---|---|---|
| 1777279509 | 19.44° C | 28% | 916.9 hPa | 0 mm | - | - | - |
| 1777279508 | 19.44° C | 28% | 916.8 hPa | 0 mm | - | - | - |
| 1777278845 | 18.89° C | 28% | 916.9 hPa | 0 mm | - | - | - |
| 1777277567 | 19.44° C | 28% | 916.7 hPa | 0 mm | - | - | - |
| 1777276926 | 19.44° C | 28% | 916.9 hPa | 0 mm | - | - | - |
| 1777276288 | 18.89° C | 28% | 916.7 hPa | 0 mm | - | - | - |
| 1777275647 | 19.44° C | 26% | 916.7 hPa | 0 mm | - | - | - |
| 1777275015 | 19.44° C | 28% | 916.7 hPa | 0 mm | - | - | - |
| 1777274403 | 19.44° C | 28% | 916.7 hPa | 0 mm | - | - | - |
| 1777273784 | 19.44° C | 27% | 916.8 hPa | 0 mm | - | - | - |
| 1777273131 | 20° C | 28% | 916.7 hPa | 0 mm | - | - | - |
| 1777272500 | 19.44° C | 28% | 916.7 hPa | 0 mm | - | - | - |
| 1777271865 | 19.44° C | 28% | 916.8 hPa | 0 mm | - | - | - |
| 1777271863 | 19.44° C | 28% | 916.7 hPa | 0 mm | - | - | - |
| 1777271227 | 18.89° C | 28% | 916.6 hPa | 0 mm | - | - | - |
| 1777270603 | 20° C | 26% | 916.5 hPa | 0 mm | - | - | - |
| 1777269957 | 20° C | 28% | 916.6 hPa | 0 mm | - | - | - |
| 1777269314 | 19.44° C | 28% | 916.6 hPa | 0 mm | - | - | - |
| 1777268001 | 19.44° C | 27% | 916.5 hPa | 0 mm | - | - | - |
| 1777267391 | 20° C | 28% | 916.5 hPa | 0 mm | - | - | - |
| 1777266777 | 19.44° C | 28% | 916.4 hPa | 0 mm | - | - | - |
| 1777266156 | 19.44° C | 28% | 916.3 hPa | 0 mm | - | - | - |
| 1777266154 | 19.44° C | 28% | 916.4 hPa | 0 mm | - | - | - |
| 1777264921 | 19.44° C | 26% | 916.3 hPa | 0 mm | - | - | - |
| 1777264293 | 20° C | 28% | 916.2 hPa | 0 mm | - | - | - |
* Rain latest hour (hover to see other rain measurements)
** Current wind speed in m/s (hover to see current wind gust speed)